Вернуться в каталог

STARLINK-2443

АктивенСвязьVLEO
NORAD 48107·PAYLOAD·🇺🇸 United States

Запущен Apr 7, 2021 с Cape Canaveral Space Force Station

Loading…

Ближайшие Пролёты (ближайшие 24 часа)

TLE

СвежийSource: CelesTrak SupGP

Эпоха: Sep 15, 2026, 00:32 UTC

1 48107C 21027R   26258.02270833  .00006486  00000+0  20856-3 0  2585
2 48107  53.1599 351.6688 0001268  84.1651 147.4128 15.31697882    11

Отслеживайте STARLINK-2443 в реальном времени с AllMySat

Download on the App Store